Flag for Canada Weather past 2 weeks in Oshawa, Ontario, Canada

Now
1 °F

Passing clouds.


Feels Like: -8 °F
Forecast: -4 / 13 °F
Wind: 5 mph from North

Location: Toronto Buttonville

Current Time: Feb 27, 2015 at 1:04:27 AM

Latest Report: Feb 27, 2015 at 12:00 AM


Visibility: 15 mi

Pressure: 30.32 "Hg

Humidity: 60%

Dew point: -9 °F

Location of OshawaLocation

Historic Weather in Oshawa — Graph

°F

Oshawa temperature yesterday

Maximum temperature yesterday: 12 °F (at 1:00 PM)
Minimum temperature yesterday: -6 °F (at 3:00 AM)
Average temperature yesterday: 4 °F

Past Weeks' High & Low Weather Summary

 TemperatureHumidityPressure
High27 °F (Feb 11, 11:00 PM)93% (Feb 14, 4:00 AM)30.58 "Hg (Feb 14, 4:00 AM)
Low-17 °F (Feb 15, 8:00 AM)24% (Feb 17, 4:00 PM)29.58 "Hg (Feb 14, 11:00 AM)
Average5 °F62%30.09 "Hg
* Reported Feb 11 11:00 PM — Feb 26 11:00 PM, Oshawa, Weather by CustomWeather, © 2015

Note: Actual official high and low records may vary slightly from our data, if they occured in-between our weather recording intervals... More about our weather records

Advertising

Oshawa weather history for previous 24 hours

 ConditionsComfort  
Time TempWeatherWind HumidityBarometerVisibility
11:00 PM
Thu, Feb 26
1 °FPassing clouds.7 mph65%30.30 "Hg15 mi
10:00 PM3 °FPassing clouds.9 mph60%30.30 "Hg15 mi
9:00 PM3 °FPassing clouds.12 mph60%30.28 "Hg15 mi
8:00 PM3 °FPassing clouds.8 mph55%30.26 "Hg15 mi
7:00 PM7 °FPassing clouds.10 mph51%30.24 "Hg15 mi
6:00 PM9 °FScattered clouds.10 mph51%30.21 "Hg15 mi
5:00 PM10 °FBroken clouds.13 mph40%30.19 "Hg15 mi
4:00 PM12 °FMore clouds than sun.12 mph40%30.18 "Hg15 mi
3:00 PM12 °FOvercast.10 mph40%30.16 "Hg15 mi
2:00 PM12 °FOvercast.7 mph40%30.16 "Hg15 mi
1:00 PM12 °FOvercast.8 mph44%30.16 "Hg15 mi
12:00 PM10 °FOvercast.7 mph44%30.18 "Hg11 mi
11:00 AM9 °FMostly cloudy.8 mph43%30.18 "Hg12 mi
10:00 AM7 °FBroken clouds.8 mph47%30.18 "Hg12 mi
9:00 AM3 °FPartly sunny.8 mph66%30.18 "Hg12 mi
8:00 AM1 °FPartly sunny.3 mph71%30.17 "Hg12 mi
7:00 AM0 °FOvercast.5 mph78%30.15 "Hg12 mi
6:00 AM1 °FOvercast.7 mph71%30.14 "Hg15 mi
5:00 AM1 °FOvercast.7 mph71%30.14 "Hg12 mi
4:00 AM-4 °FOvercast.No wind77%30.15 "Hg12 mi
3:00 AM-6 °FPassing clouds.6 mph70%30.12 "Hg15 mi
2:00 AM-2 °FPassing clouds.5 mph65%30.14 "Hg15 mi
1:00 AM-4 °FPassing clouds.3 mph71%30.14 "Hg15 mi
Weather by CustomWeather, © 2015

See weather overviewHow to use our weather pages